Regional Weather Roundup
Issued by NWS Goodland, KS

Home | Current Version | Previous Version | Graphics & Text | Print | Product List | Glossary Off
Versions: 1 2 3 4 5 6 7 8 9 10 11 12 13 14 15 16 17 18 19 20 21 22 23 24 25 26 27 28 29 30 31 32 33 34 35 36 37 38 39 40 41 42 43 44 45 46 47 48 49 50

000
ASUS43 KGLD 191008
RWRGLD

GOODLAND FORECAST AREA HOURLY WEATHER ROUNDUP
NATIONAL WEATHER SERVICE GOODLAND KS
300 AM MST SUN FEB 19 2017

...OFFICIAL OBSERVATIONS...

CITY           SKY/WX    TMP DP  RH WIND       PRES   REMARKS
GOODLAND KS    CLOUDY    46  34  62 S20       29.69F
HILL CITY KS   PTCLDY    48  44  86 SW6       29.80S
IMPERIAL NEB   CLOUDY    48  32  53 SE14      29.69F
MCCOOK NEB     CLOUDY    48  37  65 S8        29.74F
AKRON CO       CLOUDY    47  26  44 S13       29.64F
BURLINGTON CO  CLOUDY    50  34  54 S24       29.70S
LIMON CO       CLOUDY    42  27  55 S12G24    29.71F
$$

...UNOFFICIAL OBSERVATIONS...

CITY           SKY/WX    TMP DP  RH WIND       PRES   REMARKS
LENORA KS        N/A     44  32  63 S8          N/A
NORTON KS      CLEAR     46  37  71 S9        29.78
SHARON SPRINGS   N/A     45  37  75 S15         N/A
TRIBUNE KS     CLOUDY    45  37  76 S13       29.76F
TRENTON NEB      N/A     48  32  54 S10         N/A
KIT CARSON CO    N/A     44  34  67 MISG        N/A
YUMA CO        FAIR      41  28  60 S8        29.64F
$$



USA.gov is the U.S. government's official web portal to all federal, state and local government web resources and services.